Time,TemperatureF,DewpointF,PressureIn,WindDirection,WindDirectionDegrees,WindSpeedMPH,WindSpeedGustMPH,Humidity,HourlyPrecipIn,Conditions,Clouds,dailyrainin,SoftwareType,DateUTC
2014-03-16 00:01:00,19.2,0.4,29.38,NNW,336,0.0,0.0,43,0.00,,---,0.00,VWS V14.01,2014-03-16 05:01:00,
2014-03-16 00:06:00,19.0,0.2,29.38,NW,306,0.0,0.0,43,0.00,,---,0.00,VWS V14.01,2014-03-16 05:06:00,
2014-03-16 00:11:00,18.7,-0.1,29.38,North,3,0.0,0.0,43,0.00,,---,0.00,VWS V14.01,2014-03-16 05:11:00,
2014-03-16 00:16:00,18.7,-0.1,29.38,West,273,0.0,0.0,43,0.00,,---,0.00,VWS V14.01,2014-03-16 05:16:00,
2014-03-16 00:21:00,18.5,-0.3,29.38,West,280,0.0,0.0,43,0.00,,---,0.00,VWS V14.01,2014-03-16 05:21:00,
2014-03-16 00:26:00,18.3,0.1,29.38,West,280,0.0,0.0,44,0.00,,---,0.00,VWS V14.01,2014-03-16 05:26:00,
2014-03-16 00:31:00,18.3,0.1,29.38,West,280,0.0,0.0,44,0.00,,---,0.00,VWS V14.01,2014-03-16 05:31:00,
2014-03-16 00:36:00,18.1,-0.1,29.38,West,280,0.0,0.0,44,0.00,,---,0.00,VWS V14.01,2014-03-16 05:36:00,
2014-03-16 00:41:00,18.0,-0.3,29.38,West,280,0.0,0.0,44,0.00,,---,0.00,VWS V14.01,2014-03-16 05:41:00,
2014-03-16 00:46:00,17.8,-0.4,29.38,West,280,0.0,0.0,44,0.00,,---,0.00,VWS V14.01,2014-03-16 05:46:00,
2014-03-16 00:51:00,17.6,-0.6,29.38,West,280,0.0,0.0,44,0.00,,---,0.00,VWS V14.01,2014-03-16 05:51:00,
2014-03-16 00:56:00,17.6,-0.6,29.38,West,280,0.0,0.0,44,0.00,,---,0.00,VWS V14.01,2014-03-16 05:56:00,
2014-03-16 01:01:00,17.4,-0.8,29.41,West,280,0.0,0.0,44,0.00,,---,0.00,VWS V14.01,2014-03-16 06:01:00,
2014-03-16 01:06:00,17.2,-0.9,29.41,West,280,0.0,0.0,44,0.00,,---,0.00,VWS V14.01,2014-03-16 06:06:00,
2014-03-16 01:11:00,17.1,-1.1,29.41,West,280,0.0,0.0,44,0.00,,---,0.00,VWS V14.01,2014-03-16 06:11:00,
2014-03-16 01:16:00,16.9,-1.2,29.41,West,280,0.0,0.0,44,0.00,,---,0.00,VWS V14.01,2014-03-16 06:16:00,
2014-03-16 01:21:00,16.9,-1.2,29.41,West,280,0.0,0.0,44,0.00,,---,0.00,VWS V14.01,2014-03-16 06:21:00,
2014-03-16 01:26:00,16.7,-1.4,29.41,West,280,0.0,0.0,44,0.00,,---,0.00,VWS V14.01,2014-03-16 06:26:00,
2014-03-16 01:31:00,16.5,-1.1,29.41,West,280,0.0,0.0,45,0.00,,---,0.00,VWS V14.01,2014-03-16 06:31:00,
2014-03-16 01:36:00,16.3,-1.3,29.41,West,280,0.0,0.0,45,0.00,,---,0.00,VWS V14.01,2014-03-16 06:36:00,
2014-03-16 01:41:00,16.2,-1.4,29.41,West,280,0.0,0.0,45,0.00,,---,0.00,VWS V14.01,2014-03-16 06:41:00,
2014-03-16 01:46:00,16.2,-1.4,29.41,West,280,0.0,0.0,45,0.00,,---,0.00,VWS V14.01,2014-03-16 06:46:00,
2014-03-16 01:51:00,16.0,-1.6,29.41,West,280,0.0,0.0,45,0.00,,---,0.00,VWS V14.01,2014-03-16 06:51:00,
2014-03-16 01:56:00,16.0,-1.1,29.41,NW,324,2.2,2.2,46,0.00,,---,0.00,VWS V14.01,2014-03-16 06:56:00,
2014-03-16 02:01:00,15.8,-0.9,29.41,NW,322,0.0,0.0,47,0.00,,---,0.00,VWS V14.01,2014-03-16 07:01:00,
2014-03-16 02:06:00,16.0,-0.7,29.41,NW,322,0.0,0.0,47,0.00,,---,0.00,VWS V14.01,2014-03-16 07:06:00,
2014-03-16 02:11:00,15.8,-0.9,29.41,NW,322,0.0,0.0,47,0.00,,---,0.00,VWS V14.01,2014-03-16 07:11:00,
2014-03-16 02:16:00,15.4,-1.2,29.41,NW,322,0.0,0.0,47,0.00,,---,0.00,VWS V14.01,2014-03-16 07:16:00,
2014-03-16 02:21:00,15.3,-1.3,29.41,NW,322,0.0,0.0,47,0.00,,---,0.00,VWS V14.01,2014-03-16 07:21:00,
2014-03-16 02:26:00,15.1,-1.5,29.41,NW,322,0.0,0.0,47,0.00,,---,0.00,VWS V14.01,2014-03-16 07:26:00,
2014-03-16 02:31:00,15.1,-1.5,29.41,NW,322,0.0,0.0,47,0.00,,---,0.00,VWS V14.01,2014-03-16 07:31:00,
2014-03-16 02:36:00,15.1,-1.5,29.41,NW,322,0.0,0.0,47,0.00,,---,0.00,VWS V14.01,2014-03-16 07:36:00,
2014-03-16 02:41:00,14.9,-1.2,29.41,NW,322,0.0,0.0,48,0.00,,---,0.00,VWS V14.01,2014-03-16 07:41:00,
2014-03-16 02:46:00,14.7,-1.4,29.41,NW,322,0.0,0.0,48,0.00,,---,0.00,VWS V14.01,2014-03-16 07:46:00,
2014-03-16 02:51:00,14.5,-1.6,29.41,NW,322,0.0,0.0,48,0.00,,---,0.00,VWS V14.01,2014-03-16 07:51:00,
2014-03-16 02:56:00,14.5,-1.6,29.41,NW,322,0.0,0.0,48,0.00,,---,0.00,VWS V14.01,2014-03-16 07:56:00,
2014-03-16 03:01:00,14.4,-1.7,29.41,NW,322,0.0,0.0,48,0.00,,---,0.00,VWS V14.01,2014-03-16 08:01:00,
2014-03-16 03:06:00,14.4,-1.7,29.41,NW,322,0.0,0.0,48,0.00,,---,0.00,VWS V14.01,2014-03-16 08:06:00,
2014-03-16 03:11:00,14.2,-1.9,29.41,NW,322,0.0,0.0,48,0.00,,---,0.00,VWS V14.01,2014-03-16 08:11:00,
2014-03-16 03:16:00,14.0,-2.1,29.41,NW,322,0.0,0.0,48,0.00,,---,0.00,VWS V14.01,2014-03-16 08:16:00,
2014-03-16 03:21:00,14.0,-2.1,29.41,NW,322,0.0,0.0,48,0.00,,---,0.00,VWS V14.01,2014-03-16 08:21:00,
2014-03-16 03:26:00,14.0,-2.1,29.41,NW,322,0.0,0.0,48,0.00,,---,0.00,VWS V14.01,2014-03-16 08:26:00,
2014-03-16 03:31:00,13.8,-2.2,29.44,NW,322,0.0,0.0,48,0.00,,---,0.00,VWS V14.01,2014-03-16 08:31:00,
2014-03-16 03:36:00,13.8,-2.2,29.44,NW,322,0.0,0.0,48,0.00,,---,0.00,VWS V14.01,2014-03-16 08:36:00,
2014-03-16 03:41:00,13.8,-2.2,29.44,NW,322,0.0,0.0,48,0.00,,---,0.00,VWS V14.01,2014-03-16 08:41:00,
2014-03-16 03:46:00,13.6,-2.4,29.44,NW,322,0.0,0.0,48,0.00,,---,0.00,VWS V14.01,2014-03-16 08:46:00,
2014-03-16 03:51:00,13.8,-2.2,29.44,NW,322,0.0,0.0,48,0.00,,---,0.00,VWS V14.01,2014-03-16 08:51:00,
2014-03-16 03:56:00,13.8,-2.2,29.44,NW,322,0.0,0.0,48,0.00,,---,0.00,VWS V14.01,2014-03-16 08:56:00,
2014-03-16 04:01:00,13.8,-2.2,29.44,NW,322,0.0,0.0,48,0.00,,---,0.00,VWS V14.01,2014-03-16 09:01:00,
2014-03-16 04:06:00,13.6,-2.4,29.44,NW,322,0.0,0.0,48,0.00,,---,0.00,VWS V14.01,2014-03-16 09:06:00,
2014-03-16 04:10:00,13.6,-2.4,29.44,NW,322,0.0,0.0,48,0.00,,---,0.00,VWS V14.01,2014-03-16 09:10:00,
2014-03-16 04:15:00,13.5,-2.6,29.44,NW,322,0.0,0.0,48,0.00,,---,0.00,VWS V14.01,2014-03-16 09:15:00,
2014-03-16 04:20:00,13.3,-2.7,29.44,NW,322,0.0,0.0,48,0.00,,---,0.00,VWS V14.01,2014-03-16 09:20:00,
2014-03-16 04:25:00,12.9,-3.1,29.44,NW,322,0.0,0.0,48,0.00,,---,0.00,VWS V14.01,2014-03-16 09:25:00,
2014-03-16 04:30:00,12.9,-3.1,29.44,NW,322,0.0,0.0,48,0.00,,---,0.00,VWS V14.01,2014-03-16 09:30:00,
2014-03-16 04:35:00,12.9,-3.1,29.44,NW,322,0.0,0.0,48,0.00,,---,0.00,VWS V14.01,2014-03-16 09:35:00,
2014-03-16 04:40:00,12.6,-3.4,29.44,NW,322,0.0,0.0,48,0.00,,---,0.00,VWS V14.01,2014-03-16 09:40:00,
2014-03-16 04:45:00,12.6,-3.4,29.44,NW,322,0.0,0.0,48,0.00,,---,0.00,VWS V14.01,2014-03-16 09:45:00,
2014-03-16 04:50:00,12.6,-3.4,29.44,NW,322,0.0,0.0,48,0.00,,---,0.00,VWS V14.01,2014-03-16 09:50:00,
2014-03-16 04:55:00,12.4,-3.6,29.44,NW,322,0.0,0.0,48,0.00,,---,0.00,VWS V14.01,2014-03-16 09:55:00,
2014-03-16 05:00:00,12.4,-3.6,29.44,NW,322,0.0,0.0,48,0.00,,---,0.00,VWS V14.01,2014-03-16 10:00:00,
2014-03-16 05:05:00,12.6,-3.4,29.44,NW,322,0.0,0.0,48,0.00,,---,0.00,VWS V14.01,2014-03-16 10:05:00,
2014-03-16 05:10:00,12.4,-3.6,29.44,NW,322,0.0,0.0,48,0.00,,---,0.00,VWS V14.01,2014-03-16 10:10:00,
2014-03-16 05:15:00,12.2,-3.7,29.44,NW,322,0.0,0.0,48,0.00,,---,0.00,VWS V14.01,2014-03-16 10:15:00,
2014-03-16 05:20:00,12.2,-3.7,29.44,NW,322,0.0,0.0,48,0.00,,---,0.00,VWS V14.01,2014-03-16 10:20:00,
2014-03-16 05:25:00,12.0,-3.9,29.44,NW,322,0.0,0.0,48,0.00,,---,0.00,VWS V14.01,2014-03-16 10:25:00,
2014-03-16 05:30:00,12.0,-3.9,29.41,NW,322,0.0,0.0,48,0.00,,---,0.00,VWS V14.01,2014-03-16 10:30:00,
2014-03-16 05:35:00,11.8,-4.1,29.41,NW,322,0.0,0.0,48,0.00,,---,0.00,VWS V14.01,2014-03-16 10:35:00,
2014-03-16 05:40:00,11.8,-4.1,29.41,NW,322,0.0,0.0,48,0.00,,---,0.00,VWS V14.01,2014-03-16 10:40:00,
2014-03-16 05:45:00,11.7,-4.2,29.41,NW,322,0.0,0.0,48,0.00,,---,0.00,VWS V14.01,2014-03-16 10:45:00,
2014-03-16 05:50:00,11.7,-4.2,29.41,NW,322,0.0,0.0,48,0.00,,---,0.00,VWS V14.01,2014-03-16 10:50:00,
2014-03-16 05:55:00,11.5,-4.4,29.41,NW,322,0.0,0.0,48,0.00,,---,0.00,VWS V14.01,2014-03-16 10:55:00,
2014-03-16 06:00:00,11.5,-4.4,29.41,NW,322,0.0,0.0,48,0.00,,---,0.00,VWS V14.01,2014-03-16 11:00:00,
2014-03-16 06:05:00,11.3,-4.6,29.41,NW,322,0.0,0.0,48,0.00,,---,0.00,VWS V14.01,2014-03-16 11:05:00,
2014-03-16 06:10:00,11.3,-4.6,29.41,NW,322,0.0,0.0,48,0.00,,---,0.00,VWS V14.01,2014-03-16 11:10:00,
2014-03-16 06:15:00,11.3,-4.6,29.41,NW,322,0.0,0.0,48,0.00,,---,0.00,VWS V14.01,2014-03-16 11:15:00,
2014-03-16 06:20:00,11.1,-4.7,29.41,NW,322,0.0,0.0,48,0.00,,---,0.00,VWS V14.01,2014-03-16 11:20:00,
2014-03-16 06:25:00,10.9,-4.9,29.41,NW,322,0.0,0.0,48,0.00,,---,0.00,VWS V14.01,2014-03-16 11:25:00,
2014-03-16 06:30:00,10.8,-5.1,29.41,NW,322,0.0,0.0,48,0.00,,---,0.00,VWS V14.01,2014-03-16 11:30:00,
2014-03-16 06:35:00,10.8,-5.1,29.41,NW,322,0.0,0.0,48,0.00,,---,0.00,VWS V14.01,2014-03-16 11:35:00,
2014-03-16 06:40:00,10.8,-5.1,29.41,NW,322,0.0,0.0,48,0.00,,---,0.00,VWS V14.01,2014-03-16 11:40:00,
2014-03-16 06:45:00,10.8,-5.1,29.41,NW,322,0.0,0.0,48,0.00,,---,0.00,VWS V14.01,2014-03-16 11:45:00,
2014-03-16 06:50:00,10.6,-5.2,29.41,NW,322,0.0,0.0,48,0.00,,---,0.00,VWS V14.01,2014-03-16 11:50:00,
2014-03-16 06:55:00,10.4,-5.4,29.41,NW,322,0.0,0.0,48,0.00,,---,0.00,VWS V14.01,2014-03-16 11:55:00,
2014-03-16 07:00:00,10.2,-5.6,29.41,NW,322,0.0,0.0,48,0.00,,---,0.00,VWS V14.01,2014-03-16 12:00:00,
2014-03-16 07:05:00,10.0,-5.7,29.41,NW,322,0.0,0.0,48,0.00,,---,0.00,VWS V14.01,2014-03-16 12:05:00,
2014-03-16 07:10:00,10.0,-5.7,29.41,NW,322,0.0,0.0,48,0.00,,---,0.00,VWS V14.01,2014-03-16 12:10:00,
2014-03-16 07:15:00,9.9,-5.9,29.41,NW,322,0.0,0.0,48,0.00,,---,0.00,VWS V14.01,2014-03-16 12:15:00,
2014-03-16 07:20:00,9.7,-6.1,29.41,NW,322,0.0,0.0,48,0.00,,---,0.00,VWS V14.01,2014-03-16 12:20:00,
2014-03-16 07:25:00,9.7,-6.1,29.41,NW,322,0.0,0.0,48,0.00,,---,0.00,VWS V14.01,2014-03-16 12:25:00,
2014-03-16 07:30:00,9.5,-6.2,29.41,NW,322,0.0,0.0,48,0.00,,---,0.00,VWS V14.01,2014-03-16 12:30:00,
2014-03-16 07:35:00,9.3,-6.4,29.41,NW,322,0.0,0.0,48,0.00,,---,0.00,VWS V14.01,2014-03-16 12:35:00,
2014-03-16 07:40:00,9.3,-6.4,29.41,NW,322,0.0,0.0,48,0.00,,---,0.00,VWS V14.01,2014-03-16 12:40:00,
2014-03-16 07:45:00,9.3,-6.4,29.44,NW,322,0.0,0.0,48,0.00,,---,0.00,VWS V14.01,2014-03-16 12:45:00,
2014-03-16 07:50:00,9.3,-6.4,29.44,NW,322,0.0,0.0,48,0.00,,---,0.00,VWS V14.01,2014-03-16 12:50:00,
2014-03-16 07:55:00,9.1,-6.6,29.44,NW,322,0.0,0.0,48,0.00,,---,0.00,VWS V14.01,2014-03-16 12:55:00,
2014-03-16 08:00:00,9.3,-6.4,29.44,NW,322,0.0,0.0,48,0.00,,---,0.00,VWS V14.01,2014-03-16 13:00:00,
2014-03-16 08:05:00,9.5,-6.2,29.44,NW,322,0.0,0.0,48,0.00,,---,0.00,VWS V14.01,2014-03-16 13:05:00,
2014-03-16 08:10:00,9.5,-6.2,29.44,NW,322,0.0,0.0,48,0.00,,---,0.00,VWS V14.01,2014-03-16 13:10:00,
2014-03-16 08:15:00,10.0,-5.7,29.44,NW,322,0.0,0.0,48,0.00,,---,0.00,VWS V14.01,2014-03-16 13:15:00,
2014-03-16 08:20:00,10.0,-5.7,29.44,NW,322,0.0,0.0,48,0.00,,---,0.00,VWS V14.01,2014-03-16 13:20:00,
2014-03-16 08:25:00,10.4,-5.4,29.44,NW,322,0.0,0.0,48,0.00,,---,0.00,VWS V14.01,2014-03-16 13:25:00,
2014-03-16 08:30:00,10.2,-5.6,29.44,NW,322,0.0,0.0,48,0.00,,---,0.00,VWS V14.01,2014-03-16 13:30:00,
2014-03-16 08:35:00,10.0,-5.7,29.44,NW,322,0.0,0.0,48,0.00,,---,0.00,VWS V14.01,2014-03-16 13:35:00,
2014-03-16 08:40:00,10.0,-5.7,29.44,NW,322,0.0,0.0,48,0.00,,---,0.00,VWS V14.01,2014-03-16 13:40:00,
2014-03-16 08:45:00,10.0,-5.7,29.44,NW,322,0.0,0.0,48,0.00,,---,0.00,VWS V14.01,2014-03-16 13:45:00,
2014-03-16 08:50:00,10.2,-5.6,29.44,NW,322,0.0,0.0,48,0.00,,---,0.00,VWS V14.01,2014-03-16 13:50:00,
2014-03-16 08:55:00,10.4,-5.4,29.44,NW,322,0.0,0.0,48,0.00,,---,0.00,VWS V14.01,2014-03-16 13:55:00,
2014-03-16 09:00:00,10.8,-5.1,29.44,NW,322,0.0,0.0,48,0.00,,---,0.00,VWS V14.01,2014-03-16 14:00:00,
2014-03-16 09:05:00,11.1,-4.7,29.44,NW,322,0.0,0.0,48,0.00,,---,0.00,VWS V14.01,2014-03-16 14:05:00,
2014-03-16 09:10:00,11.5,-4.4,29.44,NW,322,0.0,0.0,48,0.00,,---,0.00,VWS V14.01,2014-03-16 14:10:00,
2014-03-16 09:15:00,11.8,-4.1,29.44,NW,322,0.0,0.0,48,0.00,,---,0.00,VWS V14.01,2014-03-16 14:15:00,
2014-03-16 09:20:00,12.2,-3.7,29.44,NW,322,0.0,0.0,48,0.00,,---,0.00,VWS V14.01,2014-03-16 14:20:00,
2014-03-16 09:25:00,12.6,-3.4,29.44,NW,322,0.0,0.0,48,0.00,,---,0.00,VWS V14.01,2014-03-16 14:25:00,
2014-03-16 09:30:00,12.9,-3.1,29.44,NW,322,0.0,0.0,48,0.00,,---,0.00,VWS V14.01,2014-03-16 14:30:00,
2014-03-16 09:35:00,13.5,-2.6,29.44,NW,322,0.0,0.0,48,0.00,,---,0.00,VWS V14.01,2014-03-16 14:35:00,
2014-03-16 09:40:00,14.0,-2.1,29.44,NW,322,0.0,0.0,48,0.00,,---,0.00,VWS V14.01,2014-03-16 14:40:00,
2014-03-16 09:45:00,14.5,-2.0,29.44,NW,322,0.0,0.0,47,0.00,,---,0.00,VWS V14.01,2014-03-16 14:45:00,
2014-03-16 09:50:00,15.3,-1.8,29.44,NW,322,0.0,0.0,46,0.00,,---,0.00,VWS V14.01,2014-03-16 14:50:00,
2014-03-16 09:55:00,15.8,-1.3,29.44,NW,322,0.0,0.0,46,0.00,,---,0.00,VWS V14.01,2014-03-16 14:55:00,
2014-03-16 10:00:00,16.5,-1.1,29.41,NW,322,0.0,0.0,45,0.00,,---,0.00,VWS V14.01,2014-03-16 15:00:00,
2014-03-16 10:05:00,16.9,-1.2,29.41,NW,322,0.0,0.0,44,0.00,,---,0.00,VWS V14.01,2014-03-16 15:05:00,
2014-03-16 10:10:00,17.1,-1.1,29.41,NW,322,0.0,0.0,44,0.00,,---,0.00,VWS V14.01,2014-03-16 15:10:00,
2014-03-16 10:15:00,17.6,-0.6,29.41,NW,322,0.0,0.0,44,0.00,,---,0.00,VWS V14.01,2014-03-16 15:15:00,
2014-03-16 10:20:00,18.0,-0.3,29.41,NW,322,0.0,0.0,44,0.00,,---,0.00,VWS V14.01,2014-03-16 15:20:00,
2014-03-16 10:25:00,18.3,0.1,29.41,NW,322,0.0,0.0,44,0.00,,---,0.00,VWS V14.01,2014-03-16 15:25:00,
2014-03-16 10:30:00,18.7,0.4,29.41,NW,322,0.0,0.0,44,0.00,,---,0.00,VWS V14.01,2014-03-16 15:30:00,
2014-03-16 10:35:00,19.4,1.1,29.41,NW,322,0.0,0.0,44,0.00,,---,0.00,VWS V14.01,2014-03-16 15:35:00,
2014-03-16 10:40:00,19.9,1.1,29.41,SE,146,5.8,5.8,43,0.00,,---,0.00,VWS V14.01,2014-03-16 15:40:00,
2014-03-16 10:45:00,20.3,1.4,29.41,ESE,114,3.1,3.1,43,0.00,,---,0.00,VWS V14.01,2014-03-16 15:45:00,
2014-03-16 10:50:00,20.7,1.7,29.41,ESE,114,3.1,3.1,43,0.00,,---,0.00,VWS V14.01,2014-03-16 15:50:00,
2014-03-16 10:55:00,21.0,2.0,29.41,ESE,115,6.3,6.3,43,0.00,,---,0.00,VWS V14.01,2014-03-16 15:55:00,
2014-03-16 11:00:00,21.6,2.0,29.41,ESE,110,8.1,8.1,42,0.00,,---,0.00,VWS V14.01,2014-03-16 16:00:00,
2014-03-16 11:05:00,21.9,2.4,29.41,SE,124,3.6,3.6,42,0.00,,---,0.00,VWS V14.01,2014-03-16 16:05:00,
2014-03-16 11:10:00,21.9,2.4,29.41,SE,128,7.6,7.6,42,0.00,,---,0.00,VWS V14.01,2014-03-16 16:10:00,
2014-03-16 11:15:00,22.1,2.5,29.38,East,101,8.7,8.7,42,0.00,,---,0.00,VWS V14.01,2014-03-16 16:15:00,
2014-03-16 11:20:00,22.6,3.0,29.38,SE,127,6.3,6.3,42,0.00,,---,0.00,VWS V14.01,2014-03-16 16:20:00,
2014-03-16 11:25:00,22.8,2.7,29.38,ESE,122,4.0,4.0,41,0.00,,---,0.00,VWS V14.01,2014-03-16 16:25:00,
2014-03-16 11:30:00,22.8,2.1,29.38,SE,135,5.4,5.4,40,0.00,,---,0.00,VWS V14.01,2014-03-16 16:30:00,
2014-03-16 11:35:00,22.8,2.7,29.38,ESE,111,5.8,5.8,41,0.00,,---,0.00,VWS V14.01,2014-03-16 16:35:00,
2014-03-16 11:40:00,23.2,3.0,29.38,SE,138,6.3,6.3,41,0.00,,---,0.00,VWS V14.01,2014-03-16 16:40:00,
2014-03-16 11:45:00,23.5,2.8,29.38,SSE,154,5.8,5.8,40,0.00,,---,0.00,VWS V14.01,2014-03-16 16:45:00,
2014-03-16 11:50:00,24.4,4.1,29.38,SSE,150,8.1,8.1,41,0.00,,---,0.00,VWS V14.01,2014-03-16 16:50:00,
2014-03-16 11:55:00,24.4,3.0,29.38,SSE,149,6.3,6.3,39,0.00,,---,0.00,VWS V14.01,2014-03-16 16:55:00,
2014-03-16 12:00:00,24.8,3.9,29.38,SE,143,3.6,3.6,40,0.00,,---,0.00,VWS V14.01,2014-03-16 17:00:00,
2014-03-16 12:05:00,25.0,3.0,29.38,SE,142,4.0,4.0,38,0.00,,---,0.00,VWS V14.01,2014-03-16 17:05:00,
2014-03-16 12:10:00,25.2,3.1,29.38,East,98,9.2,9.2,38,0.00,,---,0.00,VWS V14.01,2014-03-16 17:10:00,
2014-03-16 12:15:00,25.3,3.3,29.38,SSE,147,4.9,4.9,38,0.00,,---,0.00,VWS V14.01,2014-03-16 17:15:00,
2014-03-16 12:20:00,26.1,4.5,29.38,SE,136,5.8,5.8,39,0.00,,---,0.00,VWS V14.01,2014-03-16 17:20:00,
2014-03-16 12:25:00,26.2,3.5,29.38,SE,127,5.8,5.8,37,0.00,,---,0.00,VWS V14.01,2014-03-16 17:25:00,
2014-03-16 12:30:00,26.6,3.8,29.38,NNE,31,3.6,3.6,37,0.00,,---,0.00,VWS V14.01,2014-03-16 17:30:00,
2014-03-16 12:35:00,27.3,4.5,29.38,ESE,102,7.6,7.6,37,0.00,,---,0.00,VWS V14.01,2014-03-16 17:35:00,
2014-03-16 12:40:00,27.9,5.0,29.38,East,91,6.7,6.7,37,0.00,,---,0.00,VWS V14.01,2014-03-16 17:40:00,
2014-03-16 12:45:00,28.4,4.9,29.35,East,91,5.4,5.4,36,0.00,,---,0.00,VWS V14.01,2014-03-16 17:45:00,
2014-03-16 12:50:00,28.6,5.0,29.35,ESE,109,0.0,0.0,36,0.00,,---,0.00,VWS V14.01,2014-03-16 17:50:00,
2014-03-16 12:55:00,29.5,5.8,29.35,ESE,107,4.5,4.5,36,0.00,,---,0.00,VWS V14.01,2014-03-16 17:55:00,
2014-03-16 13:00:00,30.2,6.5,29.35,SE,130,7.6,7.6,36,0.00,,---,0.00,VWS V14.01,2014-03-16 18:00:00,
2014-03-16 13:05:00,30.6,6.8,29.35,SE,134,7.6,7.6,36,0.00,,---,0.00,VWS V14.01,2014-03-16 18:05:00,
2014-03-16 13:10:00,30.7,7.0,29.35,SSE,152,8.1,8.1,36,0.00,,---,0.00,VWS V14.01,2014-03-16 18:10:00,
2014-03-16 13:15:00,30.9,6.5,29.32,SE,131,3.1,3.1,35,0.00,,---,0.00,VWS V14.01,2014-03-16 18:15:00,
2014-03-16 13:20:00,31.3,6.8,29.32,SE,140,4.9,4.9,35,0.00,,---,0.00,VWS V14.01,2014-03-16 18:20:00,
2014-03-16 13:25:00,31.6,7.8,29.32,East,96,8.1,8.1,36,0.00,,---,0.00,VWS V14.01,2014-03-16 18:25:00,
2014-03-16 13:30:00,30.9,5.9,29.32,ESE,120,6.3,6.3,34,0.00,,---,0.00,VWS V14.01,2014-03-16 18:30:00,
2014-03-16 13:35:00,30.6,5.5,29.32,ESE,108,5.8,5.8,34,0.00,,---,0.00,VWS V14.01,2014-03-16 18:35:00,
2014-03-16 13:40:00,30.9,5.9,29.32,SE,128,4.0,4.0,34,0.00,,---,0.00,VWS V14.01,2014-03-16 18:40:00,
2014-03-16 13:45:00,31.1,6.0,29.32,ESE,119,2.7,2.7,34,0.00,,---,0.00,VWS V14.01,2014-03-16 18:45:00,
2014-03-16 13:50:00,31.5,6.3,29.32,ESE,108,4.9,4.9,34,0.00,,---,0.00,VWS V14.01,2014-03-16 18:50:00,
2014-03-16 13:55:00,31.6,5.8,29.32,SE,135,3.6,3.6,33,0.00,,---,0.00,VWS V14.01,2014-03-16 18:55:00,
2014-03-16 14:00:00,31.1,5.4,29.29,WSW,247,2.2,2.2,33,0.00,,---,0.00,VWS V14.01,2014-03-16 19:00:00,
2014-03-16 14:05:00,30.6,4.9,29.29,SE,131,4.0,4.0,33,0.00,,---,0.00,VWS V14.01,2014-03-16 19:05:00,
2014-03-16 14:10:00,30.7,5.1,29.29,East,98,2.7,2.7,33,0.00,,---,0.00,VWS V14.01,2014-03-16 19:10:00,
2014-03-16 14:15:00,30.4,4.7,29.29,SSE,166,2.7,2.7,33,0.00,,---,0.00,VWS V14.01,2014-03-16 19:15:00,
2014-03-16 14:20:00,31.1,5.4,29.29,SE,130,2.7,2.7,33,0.00,,---,0.00,VWS V14.01,2014-03-16 19:20:00,
2014-03-16 14:25:00,31.6,5.8,29.29,ESE,113,5.4,5.4,33,0.00,,---,0.00,VWS V14.01,2014-03-16 19:25:00,
2014-03-16 14:30:00,32.2,6.3,29.29,ESE,118,5.8,5.8,33,0.00,,---,0.00,VWS V14.01,2014-03-16 19:30:00,
2014-03-16 14:35:00,32.5,6.6,29.29,SE,143,7.6,7.6,33,0.00,,---,0.00,VWS V14.01,2014-03-16 19:35:00,
2014-03-16 14:40:00,32.2,6.3,29.29,SSE,153,0.0,0.0,33,0.00,,---,0.00,VWS V14.01,2014-03-16 19:40:00,
2014-03-16 14:45:00,32.4,6.5,29.26,ESE,115,7.6,7.6,33,0.00,,---,0.00,VWS V14.01,2014-03-16 19:45:00,
2014-03-16 14:50:00,32.5,6.6,29.26,SW,225,3.6,3.6,33,0.00,,---,0.00,VWS V14.01,2014-03-16 19:50:00,
2014-03-16 14:55:00,31.3,4.9,29.26,ESE,109,3.6,3.6,32,0.00,,---,0.00,VWS V14.01,2014-03-16 19:55:00,
2014-03-16 15:00:00,31.1,5.4,29.26,ESE,121,4.0,4.0,33,0.00,,---,0.00,VWS V14.01,2014-03-16 20:00:00,
2014-03-16 15:05:00,31.3,5.5,29.26,SE,127,5.8,5.8,33,0.00,,---,0.00,VWS V14.01,2014-03-16 20:05:00,
2014-03-16 15:10:00,31.1,5.4,29.26,SSE,164,4.0,4.0,33,0.00,,---,0.00,VWS V14.01,2014-03-16 20:10:00,
2014-03-16 15:15:00,30.9,5.2,29.26,East,98,5.8,5.8,33,0.00,,---,0.00,VWS V14.01,2014-03-16 20:15:00,
2014-03-16 15:20:00,31.1,5.4,29.26,ESE,102,5.4,5.4,33,0.00,,---,0.00,VWS V14.01,2014-03-16 20:20:00,
2014-03-16 15:25:00,31.1,5.4,29.26,SSE,163,3.6,3.6,33,0.00,,---,0.00,VWS V14.01,2014-03-16 20:25:00,
2014-03-16 15:30:00,30.4,4.7,29.23,East,90,4.0,4.0,33,0.00,,---,0.00,VWS V14.01,2014-03-16 20:30:00,
2014-03-16 15:35:00,30.7,5.1,29.23,ESE,112,2.7,2.7,33,0.00,,---,0.00,VWS V14.01,2014-03-16 20:35:00,
2014-03-16 15:40:00,30.7,5.7,29.23,ESE,105,7.6,7.6,34,0.00,,---,0.00,VWS V14.01,2014-03-16 20:40:00,
2014-03-16 15:45:00,30.6,4.9,29.26,South,173,4.0,4.0,33,0.00,,---,0.00,VWS V14.01,2014-03-16 20:45:00,
2014-03-16 15:50:00,30.7,5.1,29.26,SE,126,3.1,3.1,33,0.00,,---,0.00,VWS V14.01,2014-03-16 20:50:00,
2014-03-16 15:55:00,30.4,4.7,29.26,SE,129,7.6,7.6,33,0.00,,---,0.00,VWS V14.01,2014-03-16 20:55:00,
2014-03-16 16:00:00,30.2,4.6,29.26,SSE,158,2.7,2.7,33,0.00,,---,0.00,VWS V14.01,2014-03-16 21:00:00,
2014-03-16 16:05:00,30.2,4.6,29.26,ESE,113,3.1,3.1,33,0.00,,---,0.00,VWS V14.01,2014-03-16 21:05:00,
2014-03-16 16:10:00,30.0,4.4,29.26,South,183,3.1,3.1,33,0.00,,---,0.00,VWS V14.01,2014-03-16 21:10:00,
2014-03-16 16:15:00,30.0,4.4,29.23,SSE,158,3.1,3.1,33,0.00,,---,0.00,VWS V14.01,2014-03-16 21:15:00,
2014-03-16 16:20:00,30.0,4.4,29.23,SE,140,4.9,4.9,33,0.00,,---,0.00,VWS V14.01,2014-03-16 21:20:00,
2014-03-16 16:25:00,29.7,4.1,29.23,WSW,253,0.0,0.0,33,0.00,,---,0.00,VWS V14.01,2014-03-16 21:25:00,
2014-03-16 16:30:00,29.3,3.8,29.23,SW,217,0.0,0.0,33,0.00,,---,0.00,VWS V14.01,2014-03-16 21:30:00,
2014-03-16 16:35:00,29.5,3.9,29.23,SW,226,3.1,3.1,33,0.00,,---,0.00,VWS V14.01,2014-03-16 21:35:00,
2014-03-16 16:40:00,29.3,3.8,29.23,South,171,4.9,4.9,33,0.00,,---,0.00,VWS V14.01,2014-03-16 21:40:00,
2014-03-16 16:45:00,29.3,4.4,29.21,SSE,155,4.0,4.0,34,0.00,,---,0.00,VWS V14.01,2014-03-16 21:45:00,
2014-03-16 16:50:00,29.3,4.4,29.21,SSE,153,3.6,3.6,34,0.00,,---,0.00,VWS V14.01,2014-03-16 21:50:00,
2014-03-16 16:55:00,29.1,4.3,29.21,SSW,200,5.4,5.4,34,0.00,,---,0.00,VWS V14.01,2014-03-16 21:55:00,
2014-03-16 17:00:00,29.1,4.3,29.21,SE,142,3.6,3.6,34,0.00,,---,0.00,VWS V14.01,2014-03-16 22:00:00,
2014-03-16 17:05:00,29.3,4.4,29.21,SE,125,2.7,2.7,34,0.00,,---,0.00,VWS V14.01,2014-03-16 22:05:00,
2014-03-16 17:10:00,29.5,4.6,29.21,SSE,163,0.0,0.0,34,0.00,,---,0.00,VWS V14.01,2014-03-16 22:10:00,
2014-03-16 17:15:00,29.5,4.6,29.21,SW,224,3.6,3.6,34,0.00,,---,0.00,VWS V14.01,2014-03-16 22:15:00,
2014-03-16 17:20:00,28.6,3.8,29.21,West,266,0.0,0.0,34,0.00,,---,0.00,VWS V14.01,2014-03-16 22:20:00,
2014-03-16 17:25:00,28.6,3.8,29.21,South,191,3.1,3.1,34,0.00,,---,0.00,VWS V14.01,2014-03-16 22:25:00,
2014-03-16 17:30:00,28.6,3.8,29.21,SSE,163,2.7,2.7,34,0.00,,---,0.00,VWS V14.01,2014-03-16 22:30:00,
2014-03-16 17:35:00,28.6,3.8,29.21,SW,230,0.0,0.0,34,0.00,,---,0.00,VWS V14.01,2014-03-16 22:35:00,
2014-03-16 17:40:00,28.4,3.6,29.21,SSW,192,4.9,4.9,34,0.00,,---,0.00,VWS V14.01,2014-03-16 22:40:00,
2014-03-16 17:45:00,28.0,3.3,29.18,SSW,207,5.8,5.8,34,0.00,,---,0.00,VWS V14.01,2014-03-16 22:45:00,
2014-03-16 17:50:00,27.9,3.2,29.18,SE,144,3.1,3.1,34,0.00,,---,0.00,VWS V14.01,2014-03-16 22:50:00,
2014-03-16 17:54:00,27.9,3.8,29.18,South,182,3.1,3.1,35,0.00,,---,0.00,VWS V14.01,2014-03-16 22:54:00,
2014-03-16 18:00:00,27.7,3.0,29.18,SE,130,4.0,4.0,34,0.00,,---,0.00,VWS V14.01,2014-03-16 23:00:00,
2014-03-16 18:05:00,27.5,3.5,29.18,SE,142,5.8,5.8,35,0.00,,---,0.00,VWS V14.01,2014-03-16 23:05:00,
2014-03-16 18:10:00,27.3,3.3,29.18,SE,136,4.0,4.0,35,0.00,,---,0.00,VWS V14.01,2014-03-16 23:10:00,
2014-03-16 18:15:00,27.3,3.3,29.15,SE,127,2.7,2.7,35,0.00,,---,0.00,VWS V14.01,2014-03-16 23:15:00,
2014-03-16 18:20:00,27.1,3.1,29.15,South,174,0.0,0.0,35,0.00,,---,0.00,VWS V14.01,2014-03-16 23:20:00,
2014-03-16 18:25:00,27.0,3.0,29.15,South,178,2.7,2.7,35,0.00,,---,0.00,VWS V14.01,2014-03-16 23:25:00,
2014-03-16 18:30:00,26.8,2.8,29.15,SE,129,0.0,0.0,35,0.00,,---,0.00,VWS V14.01,2014-03-16 23:30:00,
2014-03-16 18:34:00,26.4,2.5,29.15,SSW,205,2.2,2.2,35,0.00,,---,0.00,VWS V14.01,2014-03-16 23:34:00,
2014-03-16 18:39:00,26.2,2.9,29.15,East,91,3.6,3.6,36,0.00,,---,0.00,VWS V14.01,2014-03-16 23:39:00,
2014-03-16 18:44:00,26.2,2.3,29.15,SE,143,0.0,0.0,35,0.00,,---,0.00,VWS V14.01,2014-03-16 23:44:00,
2014-03-16 18:49:00,26.1,2.8,29.15,SSE,163,0.0,0.0,36,0.00,,---,0.00,VWS V14.01,2014-03-16 23:49:00,
2014-03-16 18:54:00,26.1,2.8,29.15,SE,128,3.1,3.1,36,0.00,,---,0.00,VWS V14.01,2014-03-16 23:54:00,
2014-03-16 18:59:00,25.9,2.6,29.15,SE,146,3.1,3.1,36,0.00,,---,0.00,VWS V14.01,2014-03-16 23:59:00,
2014-03-16 19:04:00,25.7,2.5,29.15,SE,141,4.0,4.0,36,0.00,,---,0.00,VWS V14.01,2014-03-17 00:04:00,
2014-03-16 19:09:00,25.5,2.9,29.15,South,172,4.9,4.9,37,0.00,,---,0.00,VWS V14.01,2014-03-17 00:09:00,
2014-03-16 19:14:00,25.3,2.7,29.12,SSE,165,2.7,2.7,37,0.00,,---,0.00,VWS V14.01,2014-03-17 00:14:00,
2014-03-16 19:19:00,25.3,3.3,29.12,SE,132,2.7,2.7,38,0.00,,---,0.00,VWS V14.01,2014-03-17 00:19:00,
2014-03-16 19:24:00,25.2,3.7,29.12,South,171,3.1,3.1,39,0.00,,---,0.00,VWS V14.01,2014-03-17 00:24:00,
2014-03-16 19:29:00,25.2,3.7,29.12,SSE,151,3.6,3.6,39,0.00,,---,0.00,VWS V14.01,2014-03-17 00:29:00,
2014-03-16 19:34:00,25.0,3.5,29.12,SE,142,2.7,2.7,39,0.00,,---,0.00,VWS V14.01,2014-03-17 00:34:00,
2014-03-16 19:39:00,24.8,3.9,29.12,WSW,239,2.7,2.7,40,0.00,,---,0.00,VWS V14.01,2014-03-17 00:39:00,
2014-03-16 19:44:00,24.6,4.3,29.12,SE,145,2.7,2.7,41,0.00,,---,0.00,VWS V14.01,2014-03-17 00:44:00,
2014-03-16 19:49:00,24.6,4.8,29.12,SE,144,0.0,0.0,42,0.00,,---,0.00,VWS V14.01,2014-03-17 00:49:00,
2014-03-16 19:54:00,24.6,4.8,29.12,SSE,166,2.2,2.2,42,0.00,,---,0.00,VWS V14.01,2014-03-17 00:54:00,
2014-03-16 19:59:00,24.4,4.7,29.12,SE,138,3.1,3.1,42,0.00,,---,0.00,VWS V14.01,2014-03-17 00:59:00,
2014-03-16 20:04:00,24.4,4.7,29.12,SE,132,0.0,0.0,42,0.00,,---,0.00,VWS V14.01,2014-03-17 01:04:00,
2014-03-16 20:09:00,24.4,4.7,29.12,East,98,3.6,3.6,42,0.00,,---,0.00,VWS V14.01,2014-03-17 01:09:00,
2014-03-16 20:14:00,24.3,4.5,29.09,South,174,4.9,4.9,42,0.00,,---,0.00,VWS V14.01,2014-03-17 01:14:00,
2014-03-16 20:19:00,24.3,4.5,29.09,SE,142,2.7,2.7,42,0.00,,---,0.00,VWS V14.01,2014-03-17 01:19:00,
2014-03-16 20:24:00,24.3,4.5,29.09,SE,124,3.1,3.1,42,0.00,,---,0.00,VWS V14.01,2014-03-17 01:24:00,
2014-03-16 20:29:00,24.1,4.8,29.09,SE,133,0.0,0.0,43,0.00,,---,0.00,VWS V14.01,2014-03-17 01:29:00,
2014-03-16 20:34:00,24.1,4.8,29.09,SSE,156,2.2,2.2,43,0.00,,---,0.00,VWS V14.01,2014-03-17 01:34:00,
2014-03-16 20:39:00,24.1,4.8,29.09,ESE,120,2.7,2.7,43,0.00,,---,0.00,VWS V14.01,2014-03-17 01:39:00,
2014-03-16 20:44:00,23.9,4.7,29.06,South,178,2.2,2.2,43,0.00,,---,0.00,VWS V14.01,2014-03-17 01:44:00,
2014-03-16 20:49:00,23.7,4.5,29.06,SE,142,3.6,3.6,43,0.00,,---,0.00,VWS V14.01,2014-03-17 01:49:00,
2014-03-16 20:54:00,23.7,4.5,29.06,South,186,4.0,4.0,43,0.00,,---,0.00,VWS V14.01,2014-03-17 01:54:00,
2014-03-16 20:59:00,23.5,4.3,29.06,SSW,200,2.2,2.2,43,0.00,,---,0.00,VWS V14.01,2014-03-17 01:59:00,
2014-03-16 21:04:00,23.5,4.3,29.06,South,181,2.7,2.7,43,0.00,,---,0.00,VWS V14.01,2014-03-17 02:04:00,
2014-03-16 21:09:00,23.4,4.7,29.06,ESE,106,3.1,3.1,44,0.00,,---,0.00,VWS V14.01,2014-03-17 02:09:00,
2014-03-16 21:14:00,23.4,4.7,29.06,SSE,149,3.6,3.6,44,0.00,,---,0.00,VWS V14.01,2014-03-17 02:14:00,
2014-03-16 21:19:00,23.2,4.5,29.06,SSE,167,4.9,4.9,44,0.00,,---,0.00,VWS V14.01,2014-03-17 02:19:00,
2014-03-16 21:24:00,23.2,5.0,29.06,SE,145,0.0,0.0,45,0.00,,---,0.00,VWS V14.01,2014-03-17 02:24:00,
2014-03-16 21:29:00,23.0,5.3,29.03,SSE,152,3.6,3.6,46,0.00,,---,0.00,VWS V14.01,2014-03-17 02:29:00,
2014-03-16 21:34:00,23.0,5.3,29.03,ESE,114,5.4,5.4,46,0.00,,---,0.00,VWS V14.01,2014-03-17 02:34:00,
2014-03-16 21:39:00,22.8,5.2,29.03,South,171,5.4,5.4,46,0.00,,---,0.00,VWS V14.01,2014-03-17 02:39:00,
2014-03-16 21:44:00,22.8,5.6,29.03,SE,127,3.6,3.6,47,0.00,,---,0.00,VWS V14.01,2014-03-17 02:44:00,
2014-03-16 21:49:00,22.8,5.6,29.03,ESE,114,5.8,5.8,47,0.00,,---,0.00,VWS V14.01,2014-03-17 02:49:00,
2014-03-16 21:54:00,22.8,5.6,29.03,ESE,106,5.8,5.8,47,0.00,,---,0.00,VWS V14.01,2014-03-17 02:54:00,
2014-03-16 21:59:00,22.8,6.1,29.03,ESE,108,3.6,3.6,48,0.00,,---,0.00,VWS V14.01,2014-03-17 02:59:00,
2014-03-16 22:04:00,22.8,6.1,29.03,ESE,118,5.4,5.4,48,0.00,,---,0.00,VWS V14.01,2014-03-17 03:04:00,
2014-03-16 22:09:00,22.8,6.1,29.03,South,185,4.0,4.0,48,0.00,,---,0.00,VWS V14.01,2014-03-17 03:09:00,
2014-03-16 22:14:00,22.8,6.1,29.00,South,176,4.0,4.0,48,0.00,,---,0.00,VWS V14.01,2014-03-17 03:14:00,
2014-03-16 22:19:00,22.8,6.1,29.00,ESE,120,3.1,3.1,48,0.00,,---,0.00,VWS V14.01,2014-03-17 03:19:00,
2014-03-16 22:24:00,22.8,6.5,29.00,ESE,102,4.0,4.0,49,0.00,,---,0.00,VWS V14.01,2014-03-17 03:24:00,
2014-03-16 22:29:00,22.8,6.5,29.00,SE,131,4.9,4.9,49,0.00,,---,0.00,VWS V14.01,2014-03-17 03:29:00,
2014-03-16 22:34:00,22.8,7.0,29.00,ESE,117,3.1,3.1,50,0.00,,---,0.00,VWS V14.01,2014-03-17 03:34:00,
2014-03-16 23:22:00,23.0,7.6,28.97,SE,137,7.6,7.6,51,0.00,,---,0.00,VWS V14.01,2014-03-17 04:22:00,
2014-03-16 23:27:00,23.2,7.3,28.97,SE,145,5.8,5.8,50,0.00,,---,0.00,VWS V14.01,2014-03-17 04:27:00,
2014-03-16 23:32:00,23.2,7.3,28.97,South,188,3.6,3.6,50,0.00,,---,0.00,VWS V14.01,2014-03-17 04:32:00,
2014-03-16 23:36:00,23.2,7.8,28.97,SSE,162,3.1,3.1,51,0.00,,---,0.00,VWS V14.01,2014-03-17 04:36:00,
2014-03-16 23:41:00,23.2,7.8,28.97,ESE,120,2.7,2.7,51,0.00,,---,0.00,VWS V14.01,2014-03-17 04:41:00,
2014-03-16 23:46:00,23.2,7.8,28.97,SE,135,2.2,2.2,51,0.00,,---,0.00,VWS V14.01,2014-03-17 04:46:00,
2014-03-16 23:51:00,23.2,7.8,28.97,ESE,115,5.4,5.4,51,0.00,,---,0.00,VWS V14.01,2014-03-17 04:51:00,
2014-03-16 23:56:00,23.2,8.2,28.97,SE,137,4.9,4.9,52,0.00,,---,0.00,VWS V14.01,2014-03-17 04:56:00,